PIA159 OPLA-UBBB

Flight info

Callsign PIA159
Flight time N/A
Altitude 36000
Route ADNIM Z305 KALMI J139 HANGU L509 TAPIS P173 DAVET B475 DOLOS B449 DUKAN L850 ABROL
Aircraft A320/M-SDE3FGHIRWY/LB1

Departure

Time N/A
Airport Allama Iqbal International Airport (OPLA)

Arrival

Time 2025-09-09 14:45
Airport Heydar Aliyev International Airport (UBBB)
Time Latitude Longitude Altitude Speed Heading
2025-09-09 12:43 37.01526 64.56166 35906 ft 410 kts 287°
2025-09-09 12:45 37.05613 64.39076 35909 ft 410 kts 286°
2025-09-09 12:47 37.12095 64.11756 35915 ft 409 kts 286°
2025-09-09 12:49 37.18496 63.84481 35918 ft 407 kts 286°
2025-09-09 12:51 37.24811 63.57264 35917 ft 406 kts 286°
2025-09-09 12:53 37.31041 63.30095 35922 ft 404 kts 286°
2025-09-09 12:55 37.37187 63.02920 35916 ft 404 kts 285°
2025-09-09 12:57 37.43271 62.75799 35916 ft 403 kts 285°
2025-09-09 12:59 37.49269 62.48672 35913 ft 402 kts 285°
2025-09-09 13:01 37.55193 62.21544 35911 ft 401 kts 285°
2025-09-09 13:03 37.61049 61.94456 35909 ft 400 kts 285°
2025-09-09 13:04 37.66433 61.70908 35919 ft 398 kts 286°
2025-09-09 13:07 37.73370 61.40745 35911 ft 396 kts 285°
2025-09-09 13:09 37.80224 61.10662 35893 ft 395 kts 285°
2025-09-09 13:11 37.85476 60.87277 35895 ft 394 kts 285°
2025-09-09 13:13 37.92157 60.57199 35888 ft 394 kts 285°
2025-09-09 13:15 37.97034 60.34921 35886 ft 393 kts 284°
2025-09-09 13:17 38.03571 60.04818 35879 ft 393 kts 284°
2025-09-09 13:19 38.08579 59.81383 35880 ft 393 kts 284°
2025-09-09 13:21 38.14927 59.51273 35882 ft 392 kts 284°
2025-09-09 13:23 38.19816 59.27885 35879 ft 391 kts 284°
2025-09-09 13:25 38.26007 58.97801 35882 ft 390 kts 283°
2025-09-09 13:27 38.30769 58.74384 35884 ft 390 kts 283°
2025-09-09 13:29 38.36816 58.44280 35891 ft 390 kts 283°
2025-09-09 13:31 38.42487 58.21250 35888 ft 392 kts 291°
2025-09-09 13:33 38.51421 57.95927 35905 ft 390 kts 291°
2025-09-09 13:35 38.60286 57.70627 35910 ft 389 kts 291°
2025-09-09 13:37 38.68847 57.41557 35926 ft 388 kts 288°
2025-09-09 13:39 38.75314 57.18826 35943 ft 388 kts 287°
2025-09-09 13:41 38.83534 56.89570 35936 ft 387 kts 287°
2025-09-09 13:43 38.89852 56.66825 35912 ft 387 kts 287°
2025-09-09 13:45 38.97914 56.37567 35888 ft 386 kts 287°
2025-09-09 13:47 39.03547 56.14604 35881 ft 384 kts 284°
2025-09-09 13:49 39.10303 55.84825 35884 ft 384 kts 284°
2025-09-09 13:51 39.15499 55.61708 35879 ft 384 kts 283°
2025-09-09 13:53 39.21867 55.33020 35870 ft 383 kts 283°
2025-09-09 13:55 39.26936 55.09920 35858 ft 383 kts 283°
2025-09-09 13:57 39.33398 54.80107 35863 ft 382 kts 283°
2025-09-09 13:59 39.38358 54.56934 35859 ft 382 kts 283°
2025-09-09 14:01 39.44670 54.27127 35854 ft 382 kts 282°
2025-09-09 14:03 39.49520 54.03914 35855 ft 381 kts 282°
2025-09-09 14:05 39.55614 53.73989 35867 ft 381 kts 282°
2025-09-09 14:07 39.60282 53.50775 35874 ft 381 kts 282°
2025-09-09 14:09 39.66217 53.20829 35896 ft 381 kts 281°
2025-09-09 14:11 39.70784 52.97534 35900 ft 380 kts 281°
2025-09-09 14:13 39.76669 52.67544 35899 ft 381 kts 281°
2025-09-09 14:15 39.81238 52.44169 35901 ft 381 kts 281°
2025-09-09 14:17 39.87064 52.14049 35910 ft 381 kts 281°
2025-09-09 14:19 39.91522 51.90635 35929 ft 376 kts 280°
2025-09-09 14:21 39.97173 51.60571 30995 ft 397 kts 281°
2025-09-09 14:23 40.03277 51.37812 25191 ft 360 kts 290°
2025-09-09 14:23 40.05278 51.31851 24152 ft 357 kts 290°
2025-09-09 14:24 40.07268 51.25938 23110 ft 354 kts 290°
2025-09-09 14:24 40.10190 51.17230 21710 ft 344 kts 290°
2025-09-09 14:25 40.12093 51.11566 20818 ft 337 kts 290°
2025-09-09 14:25 40.13031 51.08766 20328 ft 336 kts 290°
2025-09-09 14:26 40.14891 51.03193 19392 ft 333 kts 290°
2025-09-09 14:26 40.16741 50.97643 18450 ft 333 kts 290°
2025-09-09 14:27 40.18581 50.92097 17458 ft 331 kts 290°
2025-09-09 14:27 40.20407 50.86590 16539 ft 328 kts 288°
2025-09-09 14:28 40.21246 50.80822 15633 ft 322 kts 274°
2025-09-09 14:28 40.21931 50.72092 14289 ft 321 kts 274°
2025-09-09 14:29 40.22165 50.69186 13841 ft 321 kts 274°
2025-09-09 14:29 40.22628 50.63384 12902 ft 320 kts 274°
2025-09-09 14:30 40.23075 50.57622 11995 ft 317 kts 274°
2025-09-09 14:30 40.23065 50.51900 11088 ft 313 kts 255°
2025-09-09 14:31 40.21590 50.47643 10359 ft 310 kts 234°
2025-09-09 14:31 40.19243 50.43111 9988 ft 291 kts 234°
2025-09-09 14:32 40.16969 50.38684 9518 ft 296 kts 234°
2025-09-09 14:32 40.13530 50.32012 7997 ft 285 kts 234°
2025-09-09 14:33 40.12451 50.29916 7901 ft 270 kts 234°
2025-09-09 14:33 40.10497 50.26108 7908 ft 235 kts 233°
2025-09-09 14:34 40.08665 50.22556 7911 ft 241 kts 233°
2025-09-09 14:34 40.07285 50.18584 7923 ft 244 kts 254°
2025-09-09 14:35 40.06476 50.14284 7920 ft 244 kts 254°
2025-09-09 14:35 40.05706 50.09977 7915 ft 245 kts 262°
2025-09-09 14:35 40.05747 50.07750 7924 ft 247 kts 274°
2025-09-09 14:36 40.06115 50.03286 7920 ft 247 kts 274°
2025-09-09 14:37 40.07130 49.96719 7911 ft 246 kts 295°
2025-09-09 14:37 40.08669 49.92696 7909 ft 250 kts 300°
2025-09-09 14:38 40.11545 49.90442 7872 ft 251 kts 360°
2025-09-09 14:38 40.14665 49.92170 7047 ft 250 kts 38°
2025-09-09 14:39 40.17523 49.94790 6280 ft 251 kts 37°
2025-09-09 14:39 40.20344 49.97346 5548 ft 251 kts 37°
2025-09-09 14:40 40.23213 49.99946 4812 ft 250 kts 37°
2025-09-09 14:40 40.24639 50.01241 4440 ft 248 kts 37°
2025-09-09 14:41 40.28745 50.04962 3457 ft 232 kts 36°
2025-09-09 14:41 40.31639 50.06550 2783 ft 231 kts
2025-09-09 14:42 40.34866 50.06487 2080 ft 232 kts
2025-09-09 14:42 40.38064 50.06438 1477 ft 226 kts
2025-09-09 14:43 40.40939 50.06392 959 ft 190 kts
2025-09-09 14:43 40.43316 50.06357 531 ft 152 kts
2025-09-09 14:44 40.45303 50.06328 151 ft 142 kts
2025-09-09 14:44 40.46290 50.06316 31 ft 141 kts
2025-09-09 14:45 40.48060 50.06289 14 ft 45 kts 358°
2025-09-09 14:45 40.48501 50.06184 13 ft 21 kts 274°
2025-09-09 14:46 40.48332 50.06070 15 ft 14 kts 179°
2025-09-09 14:46 40.48134 50.06074 15 ft 16 kts 180°
2025-09-09 14:47 40.47868 50.06078 15 ft 23 kts 179°
2025-09-09 14:47 40.47494 50.06083 15 ft 30 kts 180°
2025-09-09 14:48 40.47059 50.06091 15 ft 32 kts 179°
2025-09-09 14:48 40.46842 50.06092 15 ft 27 kts 173°
2025-09-09 14:49 40.46541 50.05963 15 ft 9 kts 204°
2025-09-09 14:49 40.46518 50.05840 15 ft 7 kts 269°
2025-09-09 14:50 40.46543 50.05585 15 ft 16 kts 324°
2025-09-09 14:50 40.46609 50.05465 15 ft 6 kts 278°
2025-09-09 14:51 40.46615 50.05416 15 ft 0 kts 278°
2025-09-09 14:51 40.46616 50.05406 15 ft 0 kts 279°